Location: Poughquag
(41.6090°N, 73.6820°W)
Time: 07:15:55
(UTC-05:00)

Altair - Pass Details

Date: 28 November 2023
Orbit: 1501 x 1682 km, 47.2° (Epoch: 02 March)

Event Time Altitude Azimuth Distance (km) Brightness Sun altitude
Rises 10:54:50 0° 250° (WSW) 4,772 10.2 26.1°
Reaches altitude 10° 10:57:58 10° 251° (WSW) 3,765 9.7 26.2°
Maximum altitude 11:07:30 79° 339° (NNW) 1,559 7.9 26.5°
Drops below altitude 10° 11:16:45 10° 66° (ENE) 3,664 9.4 26.8°
Sets 11:19:46 0° 68° (ENE) 4,639 9.9 26.8°
